Location: Monteux
(44.0348°N, 4.9972°E)
Time: 14:29:13
(UTC+00:00)

NOSS 3-2 (A) - Pass Details

Date: 30 November 2020
Orbit: 789 x 1419 km, 63.4° (Epoch: 22 January)

Event Time Altitude Azimuth Distance (km) Brightness Sun altitude
Rises 17:27:40 0° 186° (S) 3,303 6.6 -14.7°
Reaches altitude 10° 17:30:11 10° 176° (S) 2,416 5.7 -15.2°
Maximum altitude 17:35:06 34° 113° (ESE) 1,422 4.0 -16.0°
Enters shadow 17:37:25 25° 74° (ENE) 1,747 4.2 -16.4°
